Year,Month,Day,Hour,Minute,Value (Times are PST for windspeed in km/hr)
2014,11,06,00,00,2.10
2014,11,06,00,01,0.00
2014,11,06,00,02,0.60
2014,11,06,00,03,0.00
2014,11,06,00,04,1.00
2014,11,06,00,05,0.10
2014,11,06,00,06,0.00
2014,11,06,00,07,0.00
2014,11,06,00,08,0.00
2014,11,06,00,09,3.30
2014,11,06,00,10,1.10
2014,11,06,00,11,1.50
2014,11,06,00,12,4.00
2014,11,06,00,13,1.50
2014,11,06,00,14,0.90
2014,11,06,00,15,0.80
2014,11,06,00,16,0.00
2014,11,06,00,17,0.00
2014,11,06,00,18,0.00
2014,11,06,00,19,0.00
2014,11,06,00,20,1.00
2014,11,06,00,21,1.40
2014,11,06,00,22,0.50
2014,11,06,00,23,2.10
2014,11,06,00,24,0.90
2014,11,06,00,25,0.30
2014,11,06,00,26,0.30
2014,11,06,00,27,3.20
2014,11,06,00,28,3.50
2014,11,06,00,29,0.20
2014,11,06,00,30,0.10
2014,11,06,00,31,0.60
2014,11,06,00,32,0.70
2014,11,06,00,33,1.20
2014,11,06,00,34,5.90
2014,11,06,00,35,5.20
2014,11,06,00,36,2.00
2014,11,06,00,37,0.00
2014,11,06,00,38,0.00
2014,11,06,00,39,0.10
2014,11,06,00,40,0.80
2014,11,06,00,41,1.20
2014,11,06,00,42,0.60
2014,11,06,00,43,0.90
2014,11,06,00,44,1.00
2014,11,06,00,45,0.50
2014,11,06,00,46,0.10
2014,11,06,00,47,0.10
2014,11,06,00,48,0.00
2014,11,06,00,49,0.00
2014,11,06,00,50,0.00
2014,11,06,00,51,0.10
2014,11,06,00,52,0.00
2014,11,06,00,53,0.30
2014,11,06,00,54,2.00
2014,11,06,00,55,2.30
2014,11,06,00,56,2.30
2014,11,06,00,57,3.10
2014,11,06,00,58,0.20
2014,11,06,00,59,3.90
2014,11,06,01,00,2.70
2014,11,06,01,01,0.00
2014,11,06,01,02,0.00
2014,11,06,01,03,0.00
2014,11,06,01,04,0.00
2014,11,06,01,05,0.00
2014,11,06,01,06,0.00
2014,11,06,01,07,0.00
2014,11,06,01,08,0.00
2014,11,06,01,09,0.00
2014,11,06,01,10,0.00
2014,11,06,01,11,0.00
2014,11,06,01,12,0.00
2014,11,06,01,13,0.00
2014,11,06,01,14,0.00
2014,11,06,01,15,0.00
2014,11,06,01,16,0.00
2014,11,06,01,17,0.00
2014,11,06,01,18,0.00
2014,11,06,01,19,0.40
2014,11,06,01,20,0.30
2014,11,06,01,21,2.80
2014,11,06,01,22,3.30
2014,11,06,01,23,1.10
2014,11,06,01,24,1.80
2014,11,06,01,25,2.50
2014,11,06,01,26,1.60
2014,11,06,01,27,3.90
2014,11,06,01,28,5.10
2014,11,06,01,29,3.00
2014,11,06,01,30,1.70
2014,11,06,01,31,1.00
2014,11,06,01,32,1.80
2014,11,06,01,33,4.80
2014,11,06,01,34,0.20
2014,11,06,01,35,1.80
2014,11,06,01,36,3.00
2014,11,06,01,37,1.10
2014,11,06,01,38,0.00
2014,11,06,01,39,0.10
2014,11,06,01,40,2.50
2014,11,06,01,41,3.10
2014,11,06,01,42,0.70
2014,11,06,01,43,3.40
2014,11,06,01,44,0.10
2014,11,06,01,45,0.90
2014,11,06,01,46,2.90
2014,11,06,01,47,4.50
2014,11,06,01,48,2.70
2014,11,06,01,49,0.90
2014,11,06,01,50,1.50
2014,11,06,01,51,0.00
2014,11,06,01,52,0.80
2014,11,06,01,53,0.50
2014,11,06,01,54,0.00
2014,11,06,01,55,0.00
2014,11,06,01,56,0.00
2014,11,06,01,57,0.00
2014,11,06,01,58,0.50
2014,11,06,01,59,6.70
2014,11,06,02,00,3.90
2014,11,06,02,01,3.10
2014,11,06,02,02,3.90
2014,11,06,02,03,1.40
2014,11,06,02,04,5.00
2014,11,06,02,05,2.20
2014,11,06,02,06,0.00
2014,11,06,02,07,0.00
2014,11,06,02,08,0.00
2014,11,06,02,09,0.60
2014,11,06,02,10,0.80
2014,11,06,02,11,1.00
2014,11,06,02,12,5.60
2014,11,06,02,13,1.60
2014,11,06,02,14,0.40
2014,11,06,02,15,0.20
2014,11,06,02,16,1.90
2014,11,06,02,17,0.90
2014,11,06,02,18,0.00
2014,11,06,02,19,2.90
2014,11,06,02,20,5.50
2014,11,06,02,21,0.90
2014,11,06,02,22,5.10
2014,11,06,02,23,2.50
2014,11,06,02,24,4.30
2014,11,06,02,25,0.40
2014,11,06,02,26,0.00
2014,11,06,02,27,0.20
2014,11,06,02,28,0.00
2014,11,06,02,29,0.20
2014,11,06,02,30,0.00
2014,11,06,02,31,0.00
2014,11,06,02,32,0.00
2014,11,06,02,33,0.00
2014,11,06,02,34,0.00
2014,11,06,02,35,0.00
2014,11,06,02,36,0.10
2014,11,06,02,37,0.70
2014,11,06,02,38,0.00
2014,11,06,02,39,2.40
2014,11,06,02,40,3.00
2014,11,06,02,41,1.40
2014,11,06,02,42,1.70
2014,11,06,02,43,3.50
2014,11,06,02,44,3.30
2014,11,06,02,45,4.70
2014,11,06,02,46,1.00
2014,11,06,02,47,1.80
2014,11,06,02,48,1.00
2014,11,06,02,49,0.00
2014,11,06,02,50,0.00
2014,11,06,02,51,0.00
2014,11,06,02,52,0.00
2014,11,06,02,53,0.00
2014,11,06,02,54,2.20
2014,11,06,02,55,1.10
2014,11,06,02,56,0.10
2014,11,06,02,57,0.00
2014,11,06,02,58,0.00
2014,11,06,02,59,0.00
2014,11,06,03,00,1.60
2014,11,06,03,01,0.00
2014,11,06,03,02,0.00
2014,11,06,03,03,0.00
2014,11,06,03,04,0.30
2014,11,06,03,05,0.30
2014,11,06,03,06,1.70
2014,11,06,03,07,1.70
2014,11,06,03,08,4.20
2014,11,06,03,09,3.10
2014,11,06,03,10,4.20
2014,11,06,03,11,0.20
2014,11,06,03,12,0.20
2014,11,06,03,13,4.80
2014,11,06,03,14,1.60
2014,11,06,03,15,0.00
2014,11,06,03,16,0.00
2014,11,06,03,17,0.00
2014,11,06,03,18,0.00
2014,11,06,03,19,0.00
2014,11,06,03,20,0.00
2014,11,06,03,21,0.10
2014,11,06,03,22,0.00
2014,11,06,03,23,0.00
2014,11,06,03,24,0.00
2014,11,06,03,25,0.00
2014,11,06,03,26,0.00
2014,11,06,03,27,0.00
2014,11,06,03,28,0.00
2014,11,06,03,29,0.00
2014,11,06,03,30,0.00
2014,11,06,03,31,0.00
2014,11,06,03,32,0.00
2014,11,06,03,33,0.30
2014,11,06,03,34,0.10
2014,11,06,03,35,0.50
2014,11,06,03,36,0.00
2014,11,06,03,37,0.00
2014,11,06,03,38,0.00
2014,11,06,03,39,0.00
2014,11,06,03,40,0.00
2014,11,06,03,41,0.00
2014,11,06,03,42,0.00
2014,11,06,03,43,0.00
2014,11,06,03,44,0.00
2014,11,06,03,45,0.00
2014,11,06,03,46,0.00
2014,11,06,03,47,0.00
2014,11,06,03,48,0.00
2014,11,06,03,49,0.30
2014,11,06,03,50,0.20
2014,11,06,03,51,0.00
2014,11,06,03,52,0.00
2014,11,06,03,53,0.00
2014,11,06,03,54,0.10
2014,11,06,03,55,0.00
2014,11,06,03,56,0.00
2014,11,06,03,57,0.00
2014,11,06,03,58,0.40
2014,11,06,03,59,0.00
2014,11,06,04,00,0.00
2014,11,06,04,01,0.00
2014,11,06,04,02,0.00
2014,11,06,04,03,0.00
2014,11,06,04,04,0.00
2014,11,06,04,05,0.00
2014,11,06,04,06,0.00
2014,11,06,04,07,0.00
2014,11,06,04,08,0.00
2014,11,06,04,09,0.00
2014,11,06,04,10,0.00
2014,11,06,04,11,0.00
2014,11,06,04,12,0.00
2014,11,06,04,13,0.00
2014,11,06,04,14,0.00
2014,11,06,04,15,0.00
2014,11,06,04,16,0.00
2014,11,06,04,17,0.80
2014,11,06,04,18,0.00
2014,11,06,04,19,0.00
2014,11,06,04,20,0.00
2014,11,06,04,21,0.00
2014,11,06,04,22,0.00
2014,11,06,04,23,0.00
2014,11,06,04,24,0.00
2014,11,06,04,25,0.00
2014,11,06,04,26,0.00
2014,11,06,04,27,1.30
2014,11,06,04,28,0.00
2014,11,06,04,29,0.00
2014,11,06,04,30,0.00
2014,11,06,04,31,0.00
2014,11,06,04,32,0.00
2014,11,06,04,33,0.00
2014,11,06,04,34,0.00
2014,11,06,04,35,0.00
2014,11,06,04,36,0.00
2014,11,06,04,37,0.40
2014,11,06,04,38,0.30
2014,11,06,04,39,0.20
2014,11,06,04,40,0.90
2014,11,06,04,41,1.30
2014,11,06,04,42,1.50
2014,11,06,04,43,0.00
2014,11,06,04,44,0.00
2014,11,06,04,45,0.20
2014,11,06,04,46,0.00
2014,11,06,04,47,0.00
2014,11,06,04,48,0.10
2014,11,06,04,49,0.00
2014,11,06,04,50,0.00
2014,11,06,04,51,0.00
2014,11,06,04,52,3.20
2014,11,06,04,53,3.80
2014,11,06,04,54,4.30
2014,11,06,04,55,3.70
2014,11,06,04,56,0.30
2014,11,06,04,57,1.50
2014,11,06,04,58,2.10
2014,11,06,04,59,1.00
2014,11,06,05,00,0.00
2014,11,06,05,01,0.00
2014,11,06,05,02,0.00
2014,11,06,05,03,0.00
2014,11,06,05,04,0.00
2014,11,06,05,05,0.00
2014,11,06,05,06,1.00
2014,11,06,05,07,2.70
2014,11,06,05,08,0.30
2014,11,06,05,09,0.00
2014,11,06,05,10,0.00
2014,11,06,05,11,0.90
2014,11,06,05,12,1.60
2014,11,06,05,13,1.40
2014,11,06,05,14,0.90
2014,11,06,05,15,0.10
2014,11,06,05,16,0.10
2014,11,06,05,17,1.10
2014,11,06,05,18,2.20
2014,11,06,05,19,5.10
2014,11,06,05,20,5.00
2014,11,06,05,21,7.30
2014,11,06,05,22,4.70
2014,11,06,05,23,4.10
2014,11,06,05,24,2.30
2014,11,06,05,25,2.00
2014,11,06,05,26,2.50
2014,11,06,05,27,3.20
2014,11,06,05,28,2.10
2014,11,06,05,29,0.00
2014,11,06,05,30,0.00
2014,11,06,05,31,1.30
2014,11,06,05,32,4.80
2014,11,06,05,33,2.20
2014,11,06,05,34,1.50
2014,11,06,05,35,2.10
2014,11,06,05,36,3.20
2014,11,06,05,37,3.40
2014,11,06,05,38,4.10
2014,11,06,05,39,0.90
2014,11,06,05,40,0.00
2014,11,06,05,41,0.00
2014,11,06,05,42,1.30
2014,11,06,05,43,3.70
2014,11,06,05,44,0.30
2014,11,06,05,45,0.40
2014,11,06,05,46,0.00
2014,11,06,05,47,0.00
2014,11,06,05,48,0.00
2014,11,06,05,49,0.20
2014,11,06,05,50,0.30
2014,11,06,05,51,1.30
2014,11,06,05,52,0.10
2014,11,06,05,53,0.00
2014,11,06,05,54,0.00
2014,11,06,05,55,0.00
2014,11,06,05,56,0.00
2014,11,06,05,57,0.00
2014,11,06,05,58,0.00
2014,11,06,05,59,0.00
2014,11,06,06,00,0.00
2014,11,06,06,01,0.20
2014,11,06,06,02,0.90
2014,11,06,06,03,0.00
2014,11,06,06,04,0.00
2014,11,06,06,05,0.40
2014,11,06,06,06,0.40
2014,11,06,06,07,0.00
2014,11,06,06,08,0.00
2014,11,06,06,09,0.20
2014,11,06,06,10,4.80
2014,11,06,06,11,3.70
2014,11,06,06,12,0.80
2014,11,06,06,13,0.00
2014,11,06,06,14,0.00
2014,11,06,06,15,0.70
2014,11,06,06,16,1.50
2014,11,06,06,17,0.20
2014,11,06,06,18,0.00
2014,11,06,06,19,0.30
2014,11,06,06,20,0.50
2014,11,06,06,21,0.20
2014,11,06,06,22,1.40
2014,11,06,06,23,1.80
2014,11,06,06,24,0.20
2014,11,06,06,25,0.00
2014,11,06,06,26,0.00
2014,11,06,06,27,0.00
2014,11,06,06,28,0.00
2014,11,06,06,29,0.00
2014,11,06,06,30,0.00
2014,11,06,06,31,0.80
2014,11,06,06,32,0.00
2014,11,06,06,33,0.20
2014,11,06,06,34,1.30
2014,11,06,06,35,0.10
2014,11,06,06,36,0.00
2014,11,06,06,37,0.00
2014,11,06,06,38,1.00
2014,11,06,06,39,0.00
2014,11,06,06,40,0.30
2014,11,06,06,41,0.00
2014,11,06,06,42,1.30
2014,11,06,06,43,2.60
2014,11,06,06,44,0.00
2014,11,06,06,45,1.80
2014,11,06,06,46,2.20
2014,11,06,06,47,0.20
2014,11,06,06,48,0.00
2014,11,06,06,49,0.00
2014,11,06,06,50,0.50
2014,11,06,06,51,2.90
2014,11,06,06,52,3.80
2014,11,06,06,53,2.80
2014,11,06,06,54,0.80
2014,11,06,06,55,0.00
2014,11,06,06,56,0.00
2014,11,06,06,57,0.00
2014,11,06,06,58,0.00
2014,11,06,06,59,0.00
2014,11,06,07,00,0.00
2014,11,06,07,01,0.00
2014,11,06,07,02,0.00
2014,11,06,07,03,0.90
2014,11,06,07,04,1.60
2014,11,06,07,05,3.10
2014,11,06,07,06,2.50
2014,11,06,07,07,2.50
2014,11,06,07,08,2.30
2014,11,06,07,09,2.70
2014,11,06,07,10,2.50
2014,11,06,07,11,4.30
2014,11,06,07,12,2.00
2014,11,06,07,13,3.30
2014,11,06,07,14,3.80
2014,11,06,07,15,4.00
2014,11,06,07,16,2.80
2014,11,06,07,17,5.40
2014,11,06,07,18,6.30
2014,11,06,07,19,3.20
2014,11,06,07,20,7.00
2014,11,06,07,21,6.10
2014,11,06,07,22,7.00
2014,11,06,07,23,6.10
2014,11,06,07,24,8.10
2014,11,06,07,25,8.30
2014,11,06,07,26,4.80
2014,11,06,07,27,2.70
2014,11,06,07,28,4.10
2014,11,06,07,29,5.30
2014,11,06,07,30,7.00
2014,11,06,07,31,5.50
2014,11,06,07,32,3.60
2014,11,06,07,33,5.70
2014,11,06,07,34,2.50
2014,11,06,07,35,0.20
2014,11,06,07,36,0.00
2014,11,06,07,37,1.40
2014,11,06,07,38,5.40
2014,11,06,07,39,2.80
2014,11,06,07,40,2.30
2014,11,06,07,41,2.00
2014,11,06,07,42,0.00
2014,11,06,07,43,0.00
2014,11,06,07,44,1.30
2014,11,06,07,45,3.10
2014,11,06,07,46,3.80
2014,11,06,07,47,2.20
2014,11,06,07,48,0.00
2014,11,06,07,49,0.00
2014,11,06,07,50,0.00
2014,11,06,07,51,0.00
2014,11,06,07,52,2.20
2014,11,06,07,53,2.20
2014,11,06,07,54,5.10
2014,11,06,07,55,5.80
2014,11,06,07,56,3.00
2014,11,06,07,57,5.40
2014,11,06,07,58,3.60
2014,11,06,07,59,0.80
2014,11,06,08,00,0.00
2014,11,06,08,01,0.00
2014,11,06,08,02,0.00
2014,11,06,08,03,0.10
2014,11,06,08,04,0.10
2014,11,06,08,05,0.10
2014,11,06,08,06,0.00
2014,11,06,08,07,0.60
2014,11,06,08,08,2.30
2014,11,06,08,09,2.00
2014,11,06,08,10,3.40
2014,11,06,08,11,4.50
2014,11,06,08,12,2.60
2014,11,06,08,13,3.00
2014,11,06,08,14,4.00
2014,11,06,08,15,3.80
2014,11,06,08,16,3.90
2014,11,06,08,17,1.40
2014,11,06,08,18,1.50
2014,11,06,08,19,2.10
2014,11,06,08,20,0.20
2014,11,06,08,21,0.00
2014,11,06,08,22,0.00
2014,11,06,08,23,0.00
2014,11,06,08,24,2.30
2014,11,06,08,25,4.10
2014,11,06,08,26,4.20
2014,11,06,08,27,4.80
2014,11,06,08,28,5.00
2014,11,06,08,29,4.20
2014,11,06,08,30,5.40
2014,11,06,08,31,6.20
2014,11,06,08,32,5.20
2014,11,06,08,33,3.20
2014,11,06,08,34,5.10
2014,11,06,08,35,3.90
2014,11,06,08,36,1.20
2014,11,06,08,37,0.20
2014,11,06,08,38,0.00
2014,11,06,08,39,1.40
2014,11,06,08,40,3.80
2014,11,06,08,41,5.30
2014,11,06,08,42,0.60
2014,11,06,08,43,0.90
2014,11,06,08,44,3.90
2014,11,06,08,45,3.10
2014,11,06,08,46,0.30
2014,11,06,08,47,0.00
2014,11,06,08,48,0.80
2014,11,06,08,49,0.00
2014,11,06,08,50,0.00
2014,11,06,08,51,1.20
2014,11,06,08,52,4.40
2014,11,06,08,53,3.60
2014,11,06,08,54,2.60
2014,11,06,08,55,1.90
2014,11,06,08,56,0.80
2014,11,06,08,57,0.00
2014,11,06,08,58,0.10
2014,11,06,08,59,0.20
2014,11,06,09,00,0.60
2014,11,06,09,01,0.20
2014,11,06,09,02,0.00
2014,11,06,09,03,0.00
2014,11,06,09,04,0.00
2014,11,06,09,05,0.00
2014,11,06,09,06,0.10
2014,11,06,09,07,0.00
2014,11,06,09,08,0.00
2014,11,06,09,09,0.00
2014,11,06,09,10,0.50
2014,11,06,09,11,0.10
2014,11,06,09,12,2.40
2014,11,06,09,13,2.40
2014,11,06,09,14,1.40
2014,11,06,09,15,1.30
2014,11,06,09,16,0.20
2014,11,06,09,17,0.00
2014,11,06,09,18,0.10
2014,11,06,09,19,0.10
2014,11,06,09,20,0.20
2014,11,06,09,21,0.40
2014,11,06,09,22,0.00
2014,11,06,09,23,3.40
2014,11,06,09,24,0.30
2014,11,06,09,25,0.10
2014,11,06,09,26,0.00
2014,11,06,09,27,0.00
2014,11,06,09,28,1.50
2014,11,06,09,29,2.60
2014,11,06,09,30,3.10
2014,11,06,09,31,2.20
2014,11,06,09,32,1.50
2014,11,06,09,33,0.80
2014,11,06,09,34,3.40
2014,11,06,09,35,3.50
2014,11,06,09,36,4.10
2014,11,06,09,37,5.90
2014,11,06,09,38,3.40
2014,11,06,09,39,2.40
2014,11,06,09,40,0.20
2014,11,06,09,41,0.70
2014,11,06,09,42,3.80
2014,11,06,09,43,3.60
2014,11,06,09,44,7.80
2014,11,06,09,45,6.90
2014,11,06,09,46,4.60
2014,11,06,09,47,3.10
2014,11,06,09,48,0.60
2014,11,06,09,49,5.60
2014,11,06,09,50,4.10
2014,11,06,09,51,5.40
2014,11,06,09,52,4.40
2014,11,06,09,53,3.40
2014,11,06,09,54,4.90
2014,11,06,09,55,6.90
2014,11,06,09,56,4.70
2014,11,06,09,57,2.90
2014,11,06,09,58,2.80
2014,11,06,09,59,1.90
2014,11,06,10,00,8.60
2014,11,06,10,01,7.40
2014,11,06,10,02,6.80
2014,11,06,10,03,2.90
2014,11,06,10,04,4.90
2014,11,06,10,05,10.30
2014,11,06,10,06,4.00
2014,11,06,10,07,5.00
2014,11,06,10,08,8.70
2014,11,06,10,09,6.90
2014,11,06,10,10,8.90
2014,11,06,10,11,8.90
2014,11,06,10,12,7.70
2014,11,06,10,13,6.90
2014,11,06,10,14,6.10
2014,11,06,10,15,4.30
2014,11,06,10,16,7.60
2014,11,06,10,17,7.60
2014,11,06,10,18,6.00
2014,11,06,10,19,5.80
2014,11,06,10,20,10.90
2014,11,06,10,21,9.20
2014,11,06,10,22,10.00
2014,11,06,10,23,7.10
2014,11,06,10,24,9.10
2014,11,06,10,25,6.40
2014,11,06,10,26,6.70
2014,11,06,10,27,3.50
2014,11,06,10,28,3.80
2014,11,06,10,29,4.00
2014,11,06,10,30,6.80
2014,11,06,10,31,6.60
2014,11,06,10,32,6.80
2014,11,06,10,33,6.10
2014,11,06,10,34,6.40
2014,11,06,10,35,4.60
2014,11,06,10,36,5.50
2014,11,06,10,37,6.30
2014,11,06,10,38,5.20
2014,11,06,10,39,7.60
2014,11,06,10,40,5.70
2014,11,06,10,41,4.50
2014,11,06,10,42,5.80
2014,11,06,10,43,6.20
2014,11,06,10,44,5.20
2014,11,06,10,45,4.30
2014,11,06,10,46,4.40
2014,11,06,10,47,1.30
2014,11,06,10,48,0.70
2014,11,06,10,49,3.90
2014,11,06,10,50,2.70
2014,11,06,10,51,3.60
2014,11,06,10,52,4.90
2014,11,06,10,53,3.90
2014,11,06,10,54,10.20
2014,11,06,10,55,13.50
2014,11,06,10,56,7.90
2014,11,06,10,57,6.50
2014,11,06,10,58,10.00
2014,11,06,10,59,10.60
2014,11,06,11,00,10.50
2014,11,06,11,01,12.20
2014,11,06,11,02,11.30
2014,11,06,11,03,11.50
2014,11,06,11,04,4.80
2014,11,06,11,05,6.00
2014,11,06,11,06,11.70
2014,11,06,11,07,15.50
2014,11,06,11,08,15.60
2014,11,06,11,09,8.60
2014,11,06,11,10,21.60
2014,11,06,11,11,10.40
2014,11,06,11,12,13.00
2014,11,06,11,13,19.50
2014,11,06,11,14,12.80
2014,11,06,11,15,17.20
2014,11,06,11,16,15.10
2014,11,06,11,17,12.60
2014,11,06,11,18,16.80
2014,11,06,11,19,20.30
2014,11,06,11,20,22.10
2014,11,06,11,21,18.00
2014,11,06,11,22,8.30
2014,11,06,11,23,8.90
2014,11,06,11,24,12.10
2014,11,06,11,25,16.70
2014,11,06,11,26,8.60
2014,11,06,11,27,15.40
2014,11,06,11,28,12.20
2014,11,06,11,29,11.70
2014,11,06,11,30,10.50
2014,11,06,11,31,11.20
2014,11,06,11,32,5.50
2014,11,06,11,33,4.10
2014,11,06,11,34,6.50
2014,11,06,11,35,9.90
2014,11,06,11,36,11.90
2014,11,06,11,37,6.00
2014,11,06,11,38,6.50
2014,11,06,11,39,8.50
2014,11,06,11,40,15.50
2014,11,06,11,41,7.40
2014,11,06,11,42,12.70
2014,11,06,11,43,18.20
2014,11,06,11,44,19.60
2014,11,06,11,45,18.10
2014,11,06,11,46,19.20
2014,11,06,11,47,18.90
2014,11,06,11,48,17.50
2014,11,06,11,49,16.60
2014,11,06,11,50,19.90
2014,11,06,11,51,22.40
2014,11,06,11,52,9.30
2014,11,06,11,53,17.50
2014,11,06,11,54,17.20
2014,11,06,11,55,11.00
2014,11,06,11,56,14.40
2014,11,06,11,57,14.10
2014,11,06,11,58,16.50
2014,11,06,11,59,12.30
2014,11,06,12,00,21.20
2014,11,06,12,01,15.60
2014,11,06,12,02,9.00
2014,11,06,12,03,8.50
2014,11,06,12,04,18.40
2014,11,06,12,05,17.40
2014,11,06,12,06,10.50
2014,11,06,12,07,15.20
2014,11,06,12,08,17.10
2014,11,06,12,09,15.10
2014,11,06,12,10,15.20
2014,11,06,12,11,17.40
2014,11,06,12,12,18.90
2014,11,06,12,13,13.90
2014,11,06,12,14,21.30
2014,11,06,12,15,20.30
2014,11,06,12,16,17.40
2014,11,06,12,17,12.90
2014,11,06,12,18,16.30
2014,11,06,12,19,17.60
2014,11,06,12,20,15.60
2014,11,06,12,21,9.40
2014,11,06,12,22,12.10
2014,11,06,12,23,14.30
2014,11,06,12,24,18.30
2014,11,06,12,25,19.10
2014,11,06,12,26,20.60
2014,11,06,12,27,17.90
2014,11,06,12,28,19.40
2014,11,06,12,29,21.60
2014,11,06,12,30,23.20
2014,11,06,12,31,19.30
2014,11,06,12,32,19.10
2014,11,06,12,33,20.40
2014,11,06,12,34,20.80
2014,11,06,12,35,17.50
2014,11,06,12,36,25.00
2014,11,06,12,37,23.80
2014,11,06,12,38,21.20
2014,11,06,12,39,20.60
2014,11,06,12,40,20.40
2014,11,06,12,41,17.50
2014,11,06,12,42,17.90
2014,11,06,12,43,16.60
2014,11,06,12,44,12.70
2014,11,06,12,45,16.60
2014,11,06,12,46,19.30
2014,11,06,12,47,18.70
2014,11,06,12,48,17.40
2014,11,06,12,49,12.20
2014,11,06,12,50,10.10
2014,11,06,12,51,13.60
2014,11,06,12,52,20.80
2014,11,06,12,53,18.10
2014,11,06,12,54,10.50
2014,11,06,12,55,8.90
2014,11,06,12,56,11.20
2014,11,06,12,57,25.60
2014,11,06,12,58,25.40
2014,11,06,12,59,18.20
2014,11,06,13,00,18.00
2014,11,06,13,01,14.20
2014,11,06,13,02,12.20
2014,11,06,13,03,10.50
2014,11,06,13,04,17.60
2014,11,06,13,05,19.10
2014,11,06,13,06,13.80
2014,11,06,13,07,17.90
2014,11,06,13,08,15.80
2014,11,06,13,09,19.80
2014,11,06,13,10,18.70
2014,11,06,13,11,16.80
2014,11,06,13,12,13.40
2014,11,06,13,13,17.10
2014,11,06,13,14,16.00
2014,11,06,13,15,12.60
2014,11,06,13,16,25.80
2014,11,06,13,17,18.50
2014,11,06,13,18,21.20
2014,11,06,13,19,22.70
2014,11,06,13,20,24.60
2014,11,06,13,21,18.20
2014,11,06,13,22,25.10
2014,11,06,13,23,16.70
2014,11,06,13,24,18.50
2014,11,06,13,25,27.90
2014,11,06,13,26,29.60
2014,11,06,13,27,27.30
2014,11,06,13,28,20.70
2014,11,06,13,29,24.10
2014,11,06,13,30,25.10
2014,11,06,13,31,20.80
2014,11,06,13,32,15.50
2014,11,06,13,33,18.10
2014,11,06,13,34,14.60
2014,11,06,13,35,16.30
2014,11,06,13,36,23.50
2014,11,06,13,37,18.70
2014,11,06,13,38,27.70
2014,11,06,13,39,26.80
2014,11,06,13,40,23.80
2014,11,06,13,41,18.60
2014,11,06,13,42,16.70
2014,11,06,13,43,26.00
2014,11,06,13,44,21.60
2014,11,06,13,45,12.50
2014,11,06,13,46,20.00
2014,11,06,13,47,22.60
2014,11,06,13,48,25.00
2014,11,06,13,49,23.20
2014,11,06,13,50,22.00
2014,11,06,13,51,22.60
2014,11,06,13,52,22.20
2014,11,06,13,53,24.30
2014,11,06,13,54,34.40
2014,11,06,13,55,24.10
2014,11,06,13,56,25.30
2014,11,06,13,57,28.80
2014,11,06,13,58,25.60
2014,11,06,13,59,34.00
2014,11,06,14,00,26.00
2014,11,06,14,01,26.90
2014,11,06,14,02,27.40
2014,11,06,14,03,37.80
2014,11,06,14,04,26.90
2014,11,06,14,05,29.50
2014,11,06,14,06,32.40
2014,11,06,14,07,28.60
2014,11,06,14,08,37.90
2014,11,06,14,09,32.00
2014,11,06,14,10,31.70
2014,11,06,14,11,43.50
2014,11,06,14,12,43.10
2014,11,06,14,13,33.20
2014,11,06,14,14,33.20
2014,11,06,14,15,29.80
2014,11,06,14,16,18.50
2014,11,06,14,17,33.50
2014,11,06,14,18,29.60
2014,11,06,14,19,29.90
2014,11,06,14,20,33.60
2014,11,06,14,21,38.40
2014,11,06,14,22,35.60
2014,11,06,14,23,44.60
2014,11,06,14,24,28.70
2014,11,06,14,25,27.40
2014,11,06,14,26,30.40
2014,11,06,14,27,34.90
2014,11,06,14,28,25.90
2014,11,06,14,29,28.90
2014,11,06,14,30,40.10
2014,11,06,14,31,41.70
2014,11,06,14,32,40.80
2014,11,06,14,33,37.40
2014,11,06,14,34,31.10
2014,11,06,14,35,26.80
2014,11,06,14,36,29.60
2014,11,06,14,37,32.30
2014,11,06,14,38,34.70
2014,11,06,14,39,26.50
2014,11,06,14,40,27.40
2014,11,06,14,41,31.40
2014,11,06,14,42,38.10
2014,11,06,14,43,40.00
2014,11,06,14,44,27.90
2014,11,06,14,45,36.50
2014,11,06,14,46,30.70
2014,11,06,14,47,23.20
2014,11,06,14,48,43.20
2014,11,06,14,49,42.50
2014,11,06,14,50,37.30
2014,11,06,14,51,32.10
2014,11,06,14,52,33.60
2014,11,06,14,53,30.50
2014,11,06,14,54,42.50
2014,11,06,14,55,37.70
2014,11,06,14,56,25.60
2014,11,06,14,57,22.10
2014,11,06,14,58,26.20
2014,11,06,14,59,39.60
2014,11,06,15,00,43.30
2014,11,06,15,01,30.70
2014,11,06,15,02,19.80
2014,11,06,15,03,28.80
2014,11,06,15,04,33.10
2014,11,06,15,05,38.70
2014,11,06,15,06,33.50
2014,11,06,15,07,21.80
2014,11,06,15,08,24.90
2014,11,06,15,09,28.90
2014,11,06,15,10,28.40
2014,11,06,15,11,25.30
2014,11,06,15,12,19.90
2014,11,06,15,13,17.50
2014,11,06,15,14,28.00
2014,11,06,15,15,30.00
2014,11,06,15,16,40.70
2014,11,06,15,17,40.50
2014,11,06,15,18,31.40
2014,11,06,15,19,30.60
2014,11,06,15,20,28.20
2014,11,06,15,21,31.80
2014,11,06,15,22,27.40
2014,11,06,15,23,21.10
2014,11,06,15,24,24.80
2014,11,06,15,25,27.70
2014,11,06,15,26,31.50
2014,11,06,15,27,36.10
2014,11,06,15,28,26.40
2014,11,06,15,29,29.20
2014,11,06,15,30,33.40
2014,11,06,15,31,30.70
2014,11,06,15,32,29.10
2014,11,06,15,33,31.70
2014,11,06,15,34,34.20
2014,11,06,15,35,29.10
2014,11,06,15,36,25.10
2014,11,06,15,37,27.30
2014,11,06,15,38,34.60
2014,11,06,15,39,37.90
2014,11,06,15,40,26.50
2014,11,06,15,41,29.00
2014,11,06,15,42,29.00
2014,11,06,15,43,31.80
2014,11,06,15,44,27.00
2014,11,06,15,45,27.40
2014,11,06,15,46,29.40
2014,11,06,15,47,35.60
2014,11,06,15,48,32.50
2014,11,06,15,49,27.50
2014,11,06,15,50,30.20
2014,11,06,15,51,38.10
2014,11,06,15,52,34.60
2014,11,06,15,53,30.70
2014,11,06,15,54,25.60
2014,11,06,15,55,23.50
2014,11,06,15,56,26.70
2014,11,06,15,57,21.40
2014,11,06,15,58,33.70
2014,11,06,15,59,27.20
2014,11,06,16,00,24.30
2014,11,06,16,01,32.40
2014,11,06,16,02,33.00
2014,11,06,16,03,33.40
2014,11,06,16,04,27.20
2014,11,06,16,05,28.60
2014,11,06,16,06,34.10
2014,11,06,16,07,35.70
2014,11,06,16,08,29.70
2014,11,06,16,09,31.40
2014,11,06,16,10,17.80
2014,11,06,16,11,27.30
2014,11,06,16,12,30.30
2014,11,06,16,13,35.40
2014,11,06,16,14,32.10
2014,11,06,16,15,26.20
2014,11,06,16,16,19.90
2014,11,06,16,17,31.80
2014,11,06,16,18,31.50
2014,11,06,16,19,28.80
2014,11,06,16,20,30.40
2014,11,06,16,21,37.20
2014,11,06,16,22,30.90
2014,11,06,16,23,30.30
2014,11,06,16,24,36.10
2014,11,06,16,25,29.90
2014,11,06,16,26,24.00
2014,11,06,16,27,28.30
2014,11,06,16,28,26.20
2014,11,06,16,29,24.70
2014,11,06,16,30,33.70
2014,11,06,16,31,28.60
2014,11,06,16,32,24.70
2014,11,06,16,33,31.30
2014,11,06,16,34,35.40
2014,11,06,16,35,38.40
2014,11,06,16,36,38.20
2014,11,06,16,37,38.10
2014,11,06,16,38,35.60
2014,11,06,16,39,28.90
2014,11,06,16,40,33.10
2014,11,06,16,41,30.90
2014,11,06,16,42,29.30
2014,11,06,16,43,29.90
2014,11,06,16,44,32.80
2014,11,06,16,45,33.40
2014,11,06,16,46,28.30
2014,11,06,16,47,27.60
2014,11,06,16,48,29.70
2014,11,06,16,49,27.60
2014,11,06,16,50,22.80
2014,11,06,16,51,34.80
2014,11,06,16,52,38.10
2014,11,06,16,53,40.70
2014,11,06,16,54,39.60
2014,11,06,16,55,36.20
2014,11,06,16,56,37.70
2014,11,06,16,57,30.50
2014,11,06,16,58,32.30
2014,11,06,16,59,28.10
2014,11,06,17,00,34.90
2014,11,06,17,01,29.50
2014,11,06,17,02,34.90
2014,11,06,17,03,26.80
2014,11,06,17,04,32.70
2014,11,06,17,05,27.50
2014,11,06,17,06,33.50
2014,11,06,17,07,24.10
2014,11,06,17,08,31.20
2014,11,06,17,09,32.90
2014,11,06,17,10,34.40
2014,11,06,17,11,27.20
2014,11,06,17,12,32.30
2014,11,06,17,13,27.00
2014,11,06,17,14,27.40
2014,11,06,17,15,24.30
2014,11,06,17,16,36.60
2014,11,06,17,17,36.40
2014,11,06,17,18,39.80
2014,11,06,17,19,33.10
2014,11,06,17,20,26.20
2014,11,06,17,21,38.10
2014,11,06,17,22,27.60
2014,11,06,17,23,28.60
2014,11,06,17,24,30.40
2014,11,06,17,25,27.60
2014,11,06,17,26,31.40
2014,11,06,17,27,34.10
2014,11,06,17,28,25.80
2014,11,06,17,29,28.50
2014,11,06,17,30,43.10
2014,11,06,17,31,25.40
2014,11,06,17,32,28.90
2014,11,06,17,33,34.90
2014,11,06,17,34,29.60
2014,11,06,17,35,21.90
2014,11,06,17,36,35.00
2014,11,06,17,37,33.80
2014,11,06,17,38,37.20
2014,11,06,17,39,40.10
2014,11,06,17,40,40.90
2014,11,06,17,41,38.50
2014,11,06,17,42,28.00
2014,11,06,17,43,33.70
2014,11,06,17,44,34.50
2014,11,06,17,45,36.20
2014,11,06,17,46,34.10
2014,11,06,17,47,32.20
2014,11,06,17,48,35.80